Regional Weather Roundup
Issued by NWS Kansas City/Pleasant Hill, MO

Home | Current Version | Previous Version | Graphics & Text | Print | Product List | Glossary Off
Versions: 1 2 3 4 5 6 7 8 9 10 11 12 13 14 15 16 17 18 19 20 21 22 23 24 25 26 27 28 29 30 31 32 33 34 35 36 37 38 39 40 41 42 43 44 45 46 47 48 49 50

000
ASUS43 KEAX 271111
RWREAX

WEATHER ROUNDUP FOR EASTERN KANSAS AND NORTHWEST MISSOURI
NATIONAL WEATHER SERVICE KANSAS CITY/PLEASANT HILL MO
600 AM CDT FRI MAR 27 2015

KSZ040-057-103>105-MOZ028-029-037-043-271200-
...KANSAS CITY METROPOLITAN AREA...

CITY           SKY/WX    TMP DP  RH WIND       PRES   REMARKS
K.C. INTL      CLOUDY    32  29  88 N10       30.19R WCI  24
K.C. DOWNTOWN  MOCLDY    36  28  73 N8        30.19R WCI  30
LEES SUMMIT    CLOUDY    35  29  78 N14       30.18R WCI  26
OLATHE - IXD   MOCLDY    33  30  88 N12       30.19R WCI  24
OLATHE - OJC   PTCLDY    35  29  78 N12       30.17R WCI  27
LAWRENCE       CLOUDY    34  31  88 N9        30.21R WCI  27

$$

MOZ001>008-011>017-020>025-030>033-038>040-044>046-053-054-271200-
...NORTHERN AND CENTRAL MISSOURI...

CITY           SKY/WX    TMP DP  RH WIND       PRES   REMARKS
ST. JOSEPH     CLOUDY    30  25  81 N9        30.23R WCI  22
MOSBY          SUNNY     32  28  86 N9        30.20R WCI  24
WARRENSBURG    CLOUDY    34  32  93 N7        30.17S WCI  28
WHITEMAN AFB   CLOUDY    34  32  94 NE13      30.14S WCI  25
CLINTON        LGT RAIN  36  34  93 N9        30.16R WCI  29
SEDALIA        CLOUDY    35  31  85 N12       30.16R WCI  27
WARSAW         NOT AVBL
CHILLICOTHE      N/A     31  24  75 N8        30.20R WCI  23
MOBERLY        PTCLDY    32  28  86 CALM      30.16R
KIRKSVILLE     CLOUDY    32  23  69 N10       30.16R WCI  24

$$

MOZ041-047>049-056>058-063>065-088>090-097-271200-
...EASTERN AND SOUTHERN MISSOURI...

CITY           SKY/WX    TMP DP  RH WIND       PRES   REMARKS
ST. LOUIS INTL FLURRIES  36  25  64 N8        30.12R WCI  30
SPIRIT OF STL  FLURRIES  34  26  72 N9        30.12S WCI  27
COLUMBIA       LGT SNOW  33  30  88 N13       30.14R FOG     WCI  24
JEFFERSON CITY LGT SNOW  35  31  85 NE9       30.15R FOG     WCI  28
HANNIBAL       CLEAR     28  21  74 NW5       30.15R WCI  23
ROLLA          LGT SNOW  34  29  82 MISG      30.08R
LEBANON        MIX PCPN  37  32  81 N8        30.09R WCI  31
OSAGE BEACH    CLOUDY    37  28  70 N8        30.11R WCI  31
SPRINGFIELD    CLOUDY    39  36  89 NW7       30.08R WCI  34
BRANSON        CLOUDY    37  36  93 N6        30.09R WCI  33
NEVADA         CLOUDY    37  36  93 N8        30.14  WCI  31
JOPLIN         MOCLDY    37  35  92 VRB3      30.12R
WEST PLAINS    CLOUDY    38  34  85 MISG      30.06S

$$

IAZ060-094-KSZ022-034>040-054-083-096-NEZ052-066-093-271200-
...KANSAS...SOUTHEAST NEBRASKA AND IOWA...

CITY           SKY/WX    TMP DP  RH WIND       PRES   REMARKS
TOPEKA         CLEAR     33  30  88 N8        30.23R WCI  26
MANHATTAN      CLOUDY    34  30  85 N12       30.25R WCI  25
EMPORIA        CLOUDY    35  31  85 N14       30.20R WCI  26
CHANUTE        CLOUDY    39  36  89 N15       30.16R WCI  31
WICHITA        CLOUDY    39  34  82 N17G24    30.21R WCI  30
OMAHA          PTCLDY    24  18  77 N6        30.26R WCI  17
LINCOLN        CLEAR     26  21  81 N8        30.28R WCI  18
FALLS CITY     CLEAR     29  23  78 N7        30.24R WCI  22
LAMONI         PTCLDY    25  20  81 NW7       30.18R WCI  17
DES MOINES     PTCLDY    28  17  63 N9        30.20S WCI  19

$$




USA.gov is the U.S. government's official web portal to all federal, state and local government web resources and services.